Time,TemperatureF,DewpointF,PressureIn,WindDirection,WindDirectionDegrees,WindSpeedMPH,WindSpeedGustMPH,Humidity,HourlyPrecipIn,Conditions,Clouds,dailyrainin,SoftwareType,DateUTC
2013-04-14 00:01:00,41.0,34.0,27.89,WNW,287,9.0,16.0,76,0.00,,,0.00,,2013-04-14 07:01:00,
2013-04-14 00:11:00,41.0,34.0,27.89,WNW,287,9.0,16.0,76,0.00,,,0.00,,2013-04-14 07:11:00,
2013-04-14 00:22:00,41.0,34.0,27.89,NW,314,9.0,17.0,76,0.00,,,0.00,,2013-04-14 07:22:00,
2013-04-14 00:32:00,41.0,34.0,27.89,WNW,285,10.0,17.0,76,0.00,,,0.00,,2013-04-14 07:32:00,
2013-04-14 00:42:00,41.0,34.0,27.89,WNW,285,10.0,17.0,76,0.00,,,0.00,,2013-04-14 07:42:00,
2013-04-14 00:52:00,41.0,33.0,27.89,WNW,291,6.0,14.0,74,0.00,,,0.00,,2013-04-14 07:52:00,
2013-04-14 01:01:00,41.0,33.0,27.90,WNW,294,5.0,10.0,73,0.00,,,0.00,,2013-04-14 08:01:00,
2013-04-14 01:11:00,41.0,33.0,27.90,WNW,294,5.0,10.0,73,0.00,,,0.00,,2013-04-14 08:11:00,
2013-04-14 01:22:00,41.0,33.0,27.90,West,280,4.0,11.0,74,0.00,,,0.00,,2013-04-14 08:22:00,
2013-04-14 01:32:00,40.0,33.0,27.90,WNW,287,5.0,10.0,75,0.00,,,0.00,,2013-04-14 08:32:00,
2013-04-14 01:42:00,40.0,33.0,27.90,WNW,287,5.0,10.0,75,0.00,,,0.00,,2013-04-14 08:42:00,
2013-04-14 01:52:00,40.0,33.0,27.91,NW,312,5.0,9.0,75,0.00,,,0.00,,2013-04-14 08:52:00,
2013-04-14 02:02:00,40.0,32.0,27.91,NW,309,5.0,9.0,74,0.00,,,0.00,,2013-04-14 09:02:00,
2013-04-14 02:11:00,40.0,32.0,27.91,NW,309,5.0,9.0,74,0.00,,,0.00,,2013-04-14 09:11:00,
2013-04-14 02:22:00,40.0,32.0,27.91,NW,304,5.0,11.0,73,0.00,,,0.00,,2013-04-14 09:22:00,
2013-04-14 02:32:00,40.0,32.0,27.91,NW,306,6.0,11.0,72,0.00,,,0.00,,2013-04-14 09:32:00,
2013-04-14 02:42:00,40.0,32.0,27.91,NW,306,6.0,11.0,72,0.00,,,0.00,,2013-04-14 09:42:00,
2013-04-14 02:53:00,40.0,32.0,27.91,WSW,258,6.0,11.0,73,0.00,,,0.00,,2013-04-14 09:53:00,
2013-04-14 03:02:00,40.0,32.0,27.91,WNW,298,6.0,9.0,74,0.00,,,0.00,,2013-04-14 10:02:00,
2013-04-14 03:12:00,40.0,32.0,27.91,WNW,298,6.0,9.0,74,0.00,,,0.00,,2013-04-14 10:12:00,
2013-04-14 03:22:00,39.0,31.0,27.91,NNW,327,3.0,6.0,74,0.00,,,0.00,,2013-04-14 10:22:00,
2013-04-14 03:32:00,39.0,32.0,27.91,NW,316,2.0,6.0,75,0.00,,,0.00,,2013-04-14 10:32:00,
2013-04-14 03:42:00,39.0,32.0,27.91,NW,316,2.0,6.0,75,0.00,,,0.00,,2013-04-14 10:42:00,
2013-04-14 03:52:00,39.0,31.0,27.91,West,266,5.0,11.0,74,0.00,,,0.00,,2013-04-14 10:52:00,
2013-04-14 04:02:00,40.0,32.0,27.91,NW,311,4.0,12.0,73,0.00,,,0.00,,2013-04-14 11:02:00,
2013-04-14 04:12:00,40.0,32.0,27.91,NW,311,4.0,12.0,73,0.00,,,0.00,,2013-04-14 11:12:00,
2013-04-14 04:22:00,39.0,31.0,27.91,NW,307,5.0,9.0,74,0.00,,,0.00,,2013-04-14 11:22:00,
2013-04-14 04:32:00,39.0,31.0,27.91,NW,326,6.0,10.0,74,0.00,,,0.00,,2013-04-14 11:32:00,
2013-04-14 04:42:00,39.0,31.0,27.91,NW,326,6.0,10.0,74,0.00,,,0.00,,2013-04-14 11:42:00,
2013-04-14 04:52:00,39.0,31.0,27.91,WNW,301,3.0,9.0,74,0.00,,,0.00,,2013-04-14 11:52:00,
2013-04-14 05:01:00,39.0,31.0,27.91,WNW,286,7.0,12.0,74,0.00,,,0.00,,2013-04-14 12:01:00,
2013-04-14 05:12:00,39.0,31.0,27.91,WNW,286,7.0,12.0,74,0.00,,,0.00,,2013-04-14 12:12:00,
2013-04-14 05:21:00,39.0,31.0,27.91,NNW,328,4.0,9.0,74,0.00,,,0.00,,2013-04-14 12:21:00,
2013-04-14 05:32:00,38.0,31.0,27.91,NNW,328,7.0,12.0,77,0.00,,,0.00,,2013-04-14 12:32:00,
2013-04-14 05:42:00,38.0,31.0,27.91,NNW,328,7.0,12.0,77,0.00,,,0.00,,2013-04-14 12:42:00,
2013-04-14 05:52:00,38.0,32.0,27.91,NW,322,9.0,15.0,78,0.00,,,0.00,,2013-04-14 12:52:00,
2013-04-14 06:02:00,38.0,31.0,27.91,NW,318,8.0,15.0,76,0.00,,,0.00,,2013-04-14 13:02:00,
2013-04-14 06:12:00,38.0,31.0,27.91,NW,318,8.0,15.0,76,0.00,,,0.00,,2013-04-14 13:12:00,
2013-04-14 06:22:00,38.0,30.0,27.91,WNW,293,9.0,15.0,74,0.00,,,0.00,,2013-04-14 13:22:00,
2013-04-14 06:32:00,38.0,30.0,27.91,West,280,11.0,17.0,74,0.00,,,0.00,,2013-04-14 13:32:00,
2013-04-14 06:42:00,38.0,30.0,27.91,West,280,11.0,17.0,74,0.00,,,0.00,,2013-04-14 13:42:00,
2013-04-14 06:52:00,39.0,31.0,27.91,NW,321,10.0,18.0,74,0.00,,,0.00,,2013-04-14 13:52:00,
2013-04-14 07:02:00,39.0,31.0,27.92,WNW,301,9.0,17.0,73,0.00,,,0.00,,2013-04-14 14:02:00,
2013-04-14 07:11:00,39.0,31.0,27.92,WNW,301,9.0,17.0,73,0.00,,,0.00,,2013-04-14 14:11:00,
2013-04-14 07:22:00,39.0,31.0,27.92,WNW,297,10.0,15.0,74,0.00,,,0.00,,2013-04-14 14:22:00,
2013-04-14 07:32:00,38.0,31.0,27.93,WNW,297,7.0,13.0,75,0.00,,,0.00,,2013-04-14 14:32:00,
2013-04-14 07:41:00,38.0,31.0,27.93,WNW,297,7.0,13.0,75,0.00,,,0.00,,2013-04-14 14:41:00,
2013-04-14 07:52:00,39.0,31.0,27.93,West,278,7.0,13.0,74,0.00,,,0.00,,2013-04-14 14:52:00,
2013-04-14 08:02:00,40.0,31.0,27.93,WNW,300,9.0,17.0,71,0.00,,,0.00,,2013-04-14 15:02:00,
2013-04-14 08:12:00,40.0,31.0,27.93,WNW,300,9.0,17.0,71,0.00,,,0.00,,2013-04-14 15:12:00,
2013-04-14 08:22:00,39.0,31.0,27.93,WNW,297,6.0,12.0,73,0.00,,,0.00,,2013-04-14 15:22:00,
2013-04-14 08:33:00,40.0,32.0,27.92,WNW,291,6.0,14.0,73,0.00,,,0.00,,2013-04-14 15:33:00,
2013-04-14 08:42:00,40.0,32.0,27.92,WNW,291,6.0,14.0,73,0.00,,,0.00,,2013-04-14 15:42:00,
2013-04-14 08:53:00,40.0,32.0,27.92,NNW,330,6.0,12.0,73,0.00,,,0.00,,2013-04-14 15:53:00,
2013-04-14 09:03:00,40.0,31.0,27.92,NNW,336,5.0,11.0,71,0.00,,,0.00,,2013-04-14 16:03:00,
2013-04-14 09:13:00,40.0,31.0,27.92,NNW,336,5.0,11.0,71,0.00,,,0.00,,2013-04-14 16:13:00,
2013-04-14 09:22:00,41.0,32.0,27.92,NW,321,7.0,12.0,71,0.00,,,0.00,,2013-04-14 16:22:00,
2013-04-14 09:32:00,45.0,30.0,27.91,West,277,6.0,14.0,55,0.00,,,0.00,,2013-04-14 16:32:00,
2013-04-14 09:42:00,45.0,30.0,27.91,West,277,6.0,14.0,55,0.00,,,0.00,,2013-04-14 16:42:00,
2013-04-14 09:53:00,46.0,30.0,27.91,WNW,297,8.0,12.0,53,0.00,,,0.00,,2013-04-14 16:53:00,
2013-04-14 10:01:00,47.0,32.0,27.91,NW,314,5.0,13.0,56,0.00,,,0.00,,2013-04-14 17:01:00,
2013-04-14 10:12:00,47.0,32.0,27.91,NW,314,5.0,13.0,56,0.00,,,0.00,,2013-04-14 17:12:00,
2013-04-14 10:22:00,47.0,30.0,27.91,NNW,327,7.0,14.0,52,0.00,,,0.00,,2013-04-14 17:22:00,
2013-04-14 10:32:00,48.0,29.0,27.90,NW,304,7.0,15.0,47,0.00,,,0.00,,2013-04-14 17:32:00,
2013-04-14 10:42:00,48.0,29.0,27.90,NW,304,7.0,15.0,47,0.00,,,0.00,,2013-04-14 17:42:00,
2013-04-14 10:53:00,48.0,28.0,27.90,NW,317,6.0,15.0,46,0.00,,,0.00,,2013-04-14 17:53:00,
2013-04-14 11:02:00,49.0,28.0,27.90,West,259,7.0,14.0,44,0.00,,,0.00,,2013-04-14 18:02:00,
2013-04-14 11:12:00,49.0,28.0,27.90,West,259,7.0,14.0,44,0.00,,,0.00,,2013-04-14 18:12:00,
2013-04-14 11:22:00,49.0,26.0,27.90,NNW,346,7.0,13.0,40,0.00,,,0.00,,2013-04-14 18:22:00,
2013-04-14 11:32:00,50.0,25.0,27.90,NW,308,8.0,14.0,38,0.00,,,0.00,,2013-04-14 18:32:00,
2013-04-14 11:42:00,50.0,25.0,27.90,NW,308,8.0,14.0,38,0.00,,,0.00,,2013-04-14 18:42:00,
2013-04-14 12:02:00,51.0,26.0,27.89,North,349,8.0,13.0,38,0.00,,,0.00,,2013-04-14 19:02:00,
2013-04-14 12:12:00,51.0,26.0,27.89,North,349,8.0,13.0,38,0.00,,,0.00,,2013-04-14 19:12:00,
2013-04-14 12:22:00,52.0,27.0,27.89,WSW,239,2.0,8.0,38,0.00,,,0.00,,2013-04-14 19:22:00,
2013-04-14 12:32:00,52.0,25.0,27.88,NW,311,3.0,7.0,34,0.00,,,0.00,,2013-04-14 19:32:00,
2013-04-14 12:42:00,52.0,25.0,27.88,NW,311,3.0,7.0,34,0.00,,,0.00,,2013-04-14 19:42:00,
2013-04-14 12:52:00,53.0,25.0,27.88,NW,315,3.0,7.0,34,0.00,,,0.00,,2013-04-14 19:52:00,
2013-04-14 13:02:00,54.0,23.0,27.87,North,359,1.0,8.0,30,0.00,,,0.00,,2013-04-14 20:02:00,
2013-04-14 13:12:00,54.0,23.0,27.87,North,359,1.0,8.0,30,0.00,,,0.00,,2013-04-14 20:12:00,
2013-04-14 13:22:00,55.0,24.0,27.86,WNW,295,1.0,4.0,30,0.00,,,0.00,,2013-04-14 20:22:00,
2013-04-14 13:32:00,58.0,22.0,27.86,SE,136,0.0,3.0,25,0.00,,,0.00,,2013-04-14 20:32:00,
2013-04-14 13:42:00,58.0,22.0,27.86,SE,136,0.0,3.0,25,0.00,,,0.00,,2013-04-14 20:42:00,
2013-04-14 13:52:00,56.0,23.0,27.86,ESE,113,1.0,6.0,28,0.00,,,0.00,,2013-04-14 20:52:00,
2013-04-14 14:02:00,53.0,24.0,27.86,NNE,15,4.0,9.0,32,0.00,,,0.00,,2013-04-14 21:02:00,
2013-04-14 14:12:00,53.0,24.0,27.86,NNE,15,4.0,9.0,32,0.00,,,0.00,,2013-04-14 21:12:00,
2013-04-14 14:22:00,51.0,23.0,27.86,NW,318,5.0,11.0,33,0.00,,,0.00,,2013-04-14 21:22:00,
2013-04-14 14:32:00,49.0,28.0,27.87,NW,308,9.0,15.0,44,0.00,,,0.00,,2013-04-14 21:32:00,
2013-04-14 14:42:00,49.0,28.0,27.87,NW,308,9.0,15.0,44,0.00,,,0.00,,2013-04-14 21:42:00,
2013-04-14 14:53:00,48.0,30.0,27.87,NNW,338,5.0,8.0,49,0.00,,,0.00,,2013-04-14 21:53:00,
2013-04-14 15:02:00,49.0,32.0,27.87,NE,46,1.0,5.0,52,0.00,,,0.00,,2013-04-14 22:02:00,
2013-04-14 15:32:00,51.0,33.0,27.87,West,278,0.0,3.0,50,0.00,,,0.00,,2013-04-14 22:32:00,
2013-04-14 15:52:00,50.0,32.0,27.86,SSW,208,2.0,4.0,49,0.00,,,0.00,,2013-04-14 22:52:00,
2013-04-14 16:02:00,49.0,32.0,27.86,WNW,288,10.0,16.0,52,0.00,,,0.00,,2013-04-14 23:02:00,
2013-04-14 16:22:00,48.0,32.0,27.86,WNW,299,8.0,19.0,54,0.00,,,0.00,,2013-04-14 23:22:00,
2013-04-14 16:32:00,48.0,32.0,27.86,NW,318,11.0,17.0,54,0.00,,,0.00,,2013-04-14 23:32:00,
2013-04-14 16:52:00,48.0,31.0,27.85,WNW,295,9.0,19.0,52,0.00,,,0.00,,2013-04-14 23:52:00,
2013-04-14 17:01:00,50.0,31.0,27.84,WNW,301,10.0,19.0,47,0.00,,,0.00,,2013-04-15 00:01:00,
2013-04-14 17:12:00,50.0,31.0,27.84,WNW,301,10.0,19.0,47,0.00,,,0.00,,2013-04-15 00:12:00,
2013-04-14 17:22:00,51.0,30.0,27.85,NW,306,8.0,14.0,44,0.00,,,0.00,,2013-04-15 00:22:00,
2013-04-14 17:32:00,50.0,29.0,27.85,NNW,328,11.0,16.0,44,0.00,,,0.00,,2013-04-15 00:32:00,
2013-04-14 17:42:00,50.0,29.0,27.85,NNW,328,11.0,16.0,44,0.00,,,0.00,,2013-04-15 00:42:00,
2013-04-14 17:52:00,51.0,29.0,27.85,WNW,284,8.0,14.0,42,0.00,,,0.00,,2013-04-15 00:52:00,
2013-04-14 18:02:00,51.0,29.0,27.85,WNW,302,7.0,13.0,42,0.00,,,0.00,,2013-04-15 01:02:00,
2013-04-14 18:12:00,51.0,29.0,27.85,WNW,302,7.0,13.0,42,0.00,,,0.00,,2013-04-15 01:12:00,
2013-04-14 18:22:00,51.0,31.0,27.84,WNW,284,8.0,14.0,46,0.00,,,0.00,,2013-04-15 01:22:00,
2013-04-14 18:32:00,51.0,29.0,27.85,WNW,290,6.0,12.0,43,0.00,,,0.00,,2013-04-15 01:32:00,
2013-04-14 18:42:00,51.0,29.0,27.85,WNW,290,6.0,12.0,43,0.00,,,0.00,,2013-04-15 01:42:00,
2013-04-14 18:52:00,52.0,29.0,27.85,NNW,338,7.0,13.0,41,0.00,,,0.00,,2013-04-15 01:52:00,
2013-04-14 19:02:00,51.0,29.0,27.85,WNW,293,6.0,11.0,42,0.00,,,0.00,,2013-04-15 02:02:00,
2013-04-14 19:11:00,51.0,29.0,27.85,WNW,293,6.0,11.0,42,0.00,,,0.00,,2013-04-15 02:11:00,
2013-04-14 19:22:00,50.0,31.0,27.85,ENE,72,3.0,7.0,47,0.00,,,0.00,,2013-04-15 02:22:00,
2013-04-14 19:31:00,49.0,30.0,27.85,ENE,58,2.0,8.0,48,0.00,,,0.00,,2013-04-15 02:31:00,
2013-04-14 19:42:00,49.0,30.0,27.85,ENE,58,2.0,8.0,48,0.00,,,0.00,,2013-04-15 02:42:00,
2013-04-14 19:52:00,48.0,31.0,27.86,NW,314,5.0,8.0,52,0.00,,,0.00,,2013-04-15 02:52:00,
2013-04-14 20:02:00,47.0,33.0,27.87,NNE,16,0.0,8.0,57,0.00,,,0.00,,2013-04-15 03:02:00,
2013-04-14 20:11:00,47.0,33.0,27.87,NNE,16,0.0,8.0,57,0.00,,,0.00,,2013-04-15 03:11:00,
2013-04-14 20:22:00,46.0,33.0,27.88,NE,53,0.0,7.0,60,0.00,,,0.00,,2013-04-15 03:22:00,
2013-04-14 20:32:00,44.0,35.0,27.89,NNE,13,1.0,7.0,71,0.00,,,0.00,,2013-04-15 03:32:00,
2013-04-14 20:42:00,44.0,35.0,27.89,NNE,13,1.0,7.0,71,0.00,,,0.00,,2013-04-15 03:42:00,
2013-04-14 20:54:00,44.0,36.0,27.89,SE,144,1.0,2.0,73,0.01,,,0.01,,2013-04-15 03:54:00,
2013-04-14 21:02:00,43.0,37.0,27.90,West,274,0.0,4.0,78,0.03,,,0.03,,2013-04-15 04:02:00,
2013-04-14 21:12:00,43.0,37.0,27.90,West,274,0.0,4.0,78,0.03,,,0.03,,2013-04-15 04:12:00,
2013-04-14 21:22:00,42.0,37.0,27.90,SSW,205,0.0,1.0,82,0.03,,,0.03,,2013-04-15 04:22:00,
2013-04-14 21:32:00,41.0,36.0,27.90,SE,139,0.0,1.0,83,0.03,,,0.03,,2013-04-15 04:32:00,
2013-04-14 21:42:00,41.0,36.0,27.90,SE,139,0.0,1.0,83,0.03,,,0.03,,2013-04-15 04:42:00,
2013-04-14 21:52:00,40.0,36.0,27.90,SE,138,0.0,1.0,85,0.02,,,0.03,,2013-04-15 04:52:00,
2013-04-14 22:02:00,40.0,36.0,27.90,SW,215,0.0,1.0,86,0.00,,,0.03,,2013-04-15 05:02:00,
2013-04-14 22:12:00,40.0,36.0,27.90,SW,215,0.0,1.0,86,0.00,,,0.03,,2013-04-15 05:12:00,
2013-04-14 22:22:00,40.0,36.0,27.90,NW,304,2.0,5.0,85,0.00,,,0.03,,2013-04-15 05:22:00,
2013-04-14 22:32:00,40.0,36.0,27.90,North,354,0.0,4.0,84,0.00,,,0.03,,2013-04-15 05:32:00,
2013-04-14 22:42:00,40.0,36.0,27.90,North,354,0.0,4.0,84,0.00,,,0.03,,2013-04-15 05:42:00,
2013-04-14 22:52:00,40.0,36.0,27.90,NW,304,1.0,3.0,84,0.00,,,0.03,,2013-04-15 05:52:00,
2013-04-14 23:01:00,40.0,36.0,27.90,WNW,292,2.0,3.0,84,0.00,,,0.03,,2013-04-15 06:01:00,
2013-04-14 23:12:00,40.0,36.0,27.90,WNW,292,2.0,3.0,84,0.00,,,0.03,,2013-04-15 06:12:00,
2013-04-14 23:22:00,41.0,36.0,27.89,NNW,333,2.0,4.0,81,0.00,,,0.03,,2013-04-15 06:22:00,
2013-04-14 23:32:00,41.0,35.0,27.89,WNW,293,4.0,7.0,79,0.00,,,0.03,,2013-04-15 06:32:00,
2013-04-14 23:42:00,41.0,35.0,27.89,WNW,293,4.0,7.0,79,0.00,,,0.03,,2013-04-15 06:42:00,
2013-04-14 23:52:00,41.0,35.0,27.89,NNW,330,4.0,7.0,79,0.00,,,0.03,,2013-04-15 06:52:00,